Location: Newark
(45.2500°N, 7.5833°E)
Time: 19:47:37
(UTC+00:00)

BEESAT 2 - Visible Passes

Search period start: 27 February 2021 00:00
Search period end: 09 March 2021 00:00
Orbit: 491 x 530 km, 64.9° (Epoch: 27 February)

Date Brightness Start Highest point End Pass type
(mag) Time Alt. Az. Time Alt. Az. Time Alt. Az.
27 Feb ? 03:23:26 19° ESE 03:23:29 19° ESE 03:26:21 10° ENE visible
27 Feb ? 04:58:22 21° WSW 05:00:43 45° NW 05:04:36 10° NNE visible
28 Feb ? 03:07:10 17° E 03:07:10 17° E 03:09:00 10° ENE visible
28 Feb ? 04:42:05 33° W 04:43:23 46° NW 04:47:16 10° NNE visible
01 Mar ? 02:50:46 14° ENE 02:50:46 14° ENE 02:51:39 10° ENE visible
01 Mar ? 04:25:40 45° WNW 04:26:03 47° NW 04:29:56 10° NNE visible
02 Mar ? 02:34:15 10° ENE 02:34:15 10° ENE 02:34:18 10° ENE visible
02 Mar ? 04:09:08 45° NNW 04:09:08 45° NNW 04:12:36 10° NNE visible
03 Mar ? 03:52:31 36° N 03:52:31 36° N 03:55:16 10° NNE visible
03 Mar ? 05:29:24 10° NW 05:29:53 10° NNW 05:30:22 10° NNW visible
04 Mar ? 03:35:50 28° N 03:35:50 28° N 03:37:56 10° NNE visible
04 Mar ? 05:11:55 10° NW 05:12:31 10° NNW 05:13:08 10° NNW visible
05 Mar ? 03:19:04 21° NNE 03:19:04 21° NNE 03:20:35 10° NNE visible
05 Mar ? 04:54:27 10° NW 04:55:10 10° NNW 04:55:52 10° NNW visible
06 Mar ? 03:02:16 17° NNE 03:02:16 17° NNE 03:03:14 10° NNE visible
06 Mar ? 04:37:08 10° NW 04:37:48 10° NNW 04:38:35 10° NNW visible
07 Mar ? 02:45:24 13° NNE 02:45:24 13° NNE 02:45:53 10° NNE visible
07 Mar ? 04:20:16 11° NNW 04:20:26 11° NNW 04:21:18 10° NNW visible
08 Mar ? 02:28:30 10° NNE 02:28:30 10° NNE 02:28:32 10° NNE visible
08 Mar ? 04:03:22 11° NNW 04:03:22 11° NNW 04:04:00 10° NNW visible
